Time,TemperatureF,DewpointF,PressureIn,WindDirection,WindDirectionDegrees,WindSpeedMPH,WindSpeedGustMPH,Humidity,HourlyPrecipIn,Conditions,Clouds,dailyrainin,SolarRadiationWatts/m^2,SoftwareType,DateUTC
2013-09-03 00:02:00,68.0,41.0,-100.00,ESE,106,5.0,9.0,38,0.00,,,0.00,0.000000,,2013-09-03 06:02:00,
2013-09-03 00:12:00,68.0,41.0,-100.00,ESE,106,5.0,9.0,38,0.00,,,0.00,0.000000,,2013-09-03 06:12:00,
2013-09-03 00:43:00,65.0,44.0,-100.00,NNE,14,1.0,5.0,46,0.00,,,0.00,0.000000,,2013-09-03 06:43:00,
2013-09-03 00:52:00,65.0,44.0,-100.00,NNE,14,1.0,5.0,46,0.00,,,0.00,0.000000,,2013-09-03 06:52:00,
2013-09-03 01:02:00,65.0,44.0,-100.00,NNE,14,1.0,5.0,46,0.00,,,0.00,0.000000,,2013-09-03 07:02:00,
2013-09-03 01:12:00,65.0,44.0,-100.00,NNE,14,1.0,5.0,46,0.00,,,0.00,0.000000,,2013-09-03 07:12:00,
2013-09-03 01:42:00,62.0,41.0,-100.00,ESE,114,6.0,7.0,46,0.00,,,0.00,0.000000,,2013-09-03 07:42:00,
2013-09-03 01:52:00,62.0,41.0,-100.00,ESE,114,6.0,7.0,46,0.00,,,0.00,0.000000,,2013-09-03 07:52:00,
2013-09-03 02:03:00,62.0,41.0,-100.00,ESE,114,6.0,7.0,46,0.00,,,0.00,0.000000,,2013-09-03 08:03:00,
2013-09-03 02:11:00,62.0,41.0,-100.00,ESE,114,6.0,7.0,46,0.00,,,0.00,0.000000,,2013-09-03 08:11:00,
2013-09-03 02:42:00,59.0,41.0,-100.00,NNE,29,1.0,8.0,52,0.00,,,0.00,0.000000,,2013-09-03 08:42:00,
2013-09-03 02:52:00,59.0,41.0,-100.00,NNE,29,1.0,8.0,52,0.00,,,0.00,0.000000,,2013-09-03 08:52:00,
2013-09-03 03:01:00,59.0,41.0,-100.00,NNE,29,1.0,8.0,52,0.00,,,0.00,0.000000,,2013-09-03 09:01:00,
2013-09-03 03:11:00,59.0,41.0,-100.00,NNE,29,1.0,8.0,52,0.00,,,0.00,0.000000,,2013-09-03 09:11:00,
2013-09-03 03:43:00,59.0,41.0,-100.00,NE,56,3.0,6.0,52,0.00,,,0.00,0.000000,,2013-09-03 09:43:00,
2013-09-03 03:53:00,59.0,41.0,-100.00,NE,56,3.0,6.0,52,0.00,,,0.00,0.000000,,2013-09-03 09:53:00,
2013-09-03 04:03:00,59.0,41.0,-100.00,NE,56,3.0,6.0,52,0.00,,,0.00,0.000000,,2013-09-03 10:03:00,
2013-09-03 04:12:00,59.0,41.0,-100.00,NE,56,3.0,6.0,52,0.00,,,0.00,0.000000,,2013-09-03 10:12:00,
2013-09-03 04:42:00,57.0,43.0,-100.00,West,271,1.0,4.0,59,0.00,,,0.00,0.000000,,2013-09-03 10:42:00,
2013-09-03 04:53:00,57.0,43.0,-100.00,West,271,1.0,4.0,59,0.00,,,0.00,0.000000,,2013-09-03 10:53:00,
2013-09-03 05:02:00,57.0,43.0,-100.00,West,271,1.0,4.0,59,0.00,,,0.00,0.000000,,2013-09-03 11:02:00,
2013-09-03 05:12:00,57.0,43.0,-100.00,West,271,1.0,4.0,59,0.00,,,0.00,0.000000,,2013-09-03 11:12:00,
2013-09-03 05:43:00,59.0,43.0,-100.00,NE,43,1.0,4.0,56,0.00,,,0.00,0.000000,,2013-09-03 11:43:00,
2013-09-03 05:52:00,59.0,43.0,-100.00,NE,43,1.0,4.0,56,0.00,,,0.00,0.000000,,2013-09-03 11:52:00,
2013-09-03 06:02:00,59.0,43.0,-100.00,NE,43,1.0,4.0,56,0.00,,,0.00,0.000000,,2013-09-03 12:02:00,
2013-09-03 06:12:00,59.0,43.0,-100.00,NE,43,1.0,4.0,56,0.00,,,0.00,0.000000,,2013-09-03 12:12:00,
2013-09-03 06:42:00,56.0,42.0,-100.00,SE,131,2.0,5.0,59,0.00,,,0.00,0.000000,,2013-09-03 12:42:00,
2013-09-03 06:52:00,56.0,42.0,-100.00,SE,131,2.0,5.0,59,0.00,,,0.00,0.000000,,2013-09-03 12:52:00,
2013-09-03 07:02:00,56.0,42.0,-100.00,SE,131,2.0,5.0,59,0.00,,,0.00,0.000000,,2013-09-03 13:02:00,
2013-09-03 07:11:00,56.0,42.0,-100.00,SE,131,2.0,5.0,59,0.00,,,0.00,0.000000,,2013-09-03 13:11:00,
2013-09-03 07:42:00,56.0,42.0,-100.00,WSW,251,2.0,4.0,60,0.00,,,0.00,3.000000,,2013-09-03 13:42:00,
2013-09-03 07:52:00,56.0,42.0,-100.00,WSW,251,2.0,4.0,60,0.00,,,0.00,3.000000,,2013-09-03 13:52:00,
2013-09-03 08:01:00,56.0,42.0,-100.00,WSW,251,2.0,4.0,60,0.00,,,0.00,3.000000,,2013-09-03 14:01:00,
2013-09-03 08:11:00,56.0,42.0,-100.00,WSW,251,2.0,4.0,60,0.00,,,0.00,3.000000,,2013-09-03 14:11:00,
2013-09-03 08:42:00,56.0,45.0,-100.00,SW,234,2.0,4.0,67,0.00,,,0.00,27.000000,,2013-09-03 14:42:00,
2013-09-03 08:52:00,56.0,45.0,-100.00,SW,234,2.0,4.0,67,0.00,,,0.00,27.000000,,2013-09-03 14:52:00,
2013-09-03 09:02:00,56.0,45.0,-100.00,SW,234,2.0,4.0,67,0.00,,,0.00,27.000000,,2013-09-03 15:02:00,
2013-09-03 09:43:00,61.0,45.0,-100.00,West,279,2.0,4.0,55,0.00,,,0.00,86.000000,,2013-09-03 15:43:00,
2013-09-03 09:54:00,61.0,45.0,-100.00,West,279,2.0,4.0,55,0.00,,,0.00,86.000000,,2013-09-03 15:54:00,
2013-09-03 10:04:00,61.0,45.0,-100.00,West,279,2.0,4.0,55,0.00,,,0.00,86.000000,,2013-09-03 16:04:00,
2013-09-03 10:14:00,61.0,45.0,-100.00,West,279,2.0,4.0,55,0.00,,,0.00,86.000000,,2013-09-03 16:14:00,
2013-09-03 10:43:00,62.0,50.0,-100.00,NE,50,1.0,4.0,64,0.00,,,0.00,142.000000,,2013-09-03 16:43:00,
2013-09-03 10:54:00,62.0,50.0,-100.00,NE,50,1.0,4.0,64,0.00,,,0.00,142.000000,,2013-09-03 16:54:00,
2013-09-03 11:03:00,62.0,50.0,-100.00,NE,50,1.0,4.0,64,0.00,,,0.00,142.000000,,2013-09-03 17:03:00,
2013-09-03 11:12:00,62.0,50.0,-100.00,NE,50,1.0,4.0,64,0.00,,,0.00,142.000000,,2013-09-03 17:12:00,
2013-09-03 11:43:00,68.0,45.0,-100.00,West,263,3.0,5.0,43,0.00,,,0.00,329.000000,,2013-09-03 17:43:00,
2013-09-03 11:52:00,68.0,45.0,-100.00,West,263,3.0,5.0,43,0.00,,,0.00,329.000000,,2013-09-03 17:52:00,
2013-09-03 12:02:00,68.0,45.0,-100.00,West,263,3.0,5.0,43,0.00,,,0.00,329.000000,,2013-09-03 18:02:00,
2013-09-03 12:12:00,68.0,45.0,-100.00,West,263,3.0,5.0,43,0.00,,,0.00,329.000000,,2013-09-03 18:12:00,
2013-09-03 12:43:00,68.0,48.0,-100.00,West,261,3.0,5.0,48,0.00,,,0.00,198.000000,,2013-09-03 18:43:00,
2013-09-03 12:52:00,68.0,48.0,-100.00,West,261,3.0,5.0,48,0.00,,,0.00,198.000000,,2013-09-03 18:52:00,
2013-09-03 13:02:00,68.0,48.0,-100.00,West,261,3.0,5.0,48,0.00,,,0.00,198.000000,,2013-09-03 19:02:00,
2013-09-03 13:11:00,68.0,48.0,-100.00,West,261,3.0,5.0,48,0.00,,,0.00,198.000000,,2013-09-03 19:11:00,
2013-09-03 13:42:00,78.0,50.0,-100.00,WNW,293,4.0,6.0,38,0.00,,,0.00,552.000000,,2013-09-03 19:42:00,
2013-09-03 13:52:00,78.0,50.0,-100.00,WNW,293,4.0,6.0,38,0.00,,,0.00,552.000000,,2013-09-03 19:52:00,
2013-09-03 14:02:00,78.0,50.0,-100.00,WNW,293,4.0,6.0,38,0.00,,,0.00,552.000000,,2013-09-03 20:02:00,
2013-09-03 14:11:00,78.0,50.0,-100.00,WNW,293,4.0,6.0,38,0.00,,,0.00,552.000000,,2013-09-03 20:11:00,
2013-09-03 14:42:00,81.0,48.0,-100.00,SW,229,5.0,9.0,32,0.00,,,0.00,869.000000,,2013-09-03 20:42:00,
2013-09-03 14:52:00,81.0,48.0,-100.00,SW,229,5.0,9.0,32,0.00,,,0.00,869.000000,,2013-09-03 20:52:00,
2013-09-03 15:01:00,81.0,48.0,-100.00,SW,229,5.0,9.0,32,0.00,,,0.00,869.000000,,2013-09-03 21:01:00,
2013-09-03 15:12:00,81.0,48.0,-100.00,SW,229,5.0,9.0,32,0.00,,,0.00,869.000000,,2013-09-03 21:12:00,
2013-09-03 15:44:00,77.0,47.0,-100.00,WNW,282,2.0,11.0,35,0.00,,,0.00,235.000000,,2013-09-03 21:44:00,
2013-09-03 15:54:00,77.0,47.0,-100.00,WNW,282,2.0,11.0,35,0.00,,,0.00,235.000000,,2013-09-03 21:54:00,
2013-09-03 16:04:00,77.0,47.0,-100.00,WNW,282,2.0,11.0,35,0.00,,,0.00,235.000000,,2013-09-03 22:04:00,
2013-09-03 16:13:00,77.0,47.0,-100.00,WNW,282,2.0,11.0,35,0.00,,,0.00,235.000000,,2013-09-03 22:13:00,
2013-09-03 17:42:00,67.0,56.0,-100.00,NW,321,5.0,10.0,68,-99.99,,,0.06,367.000000,,2013-09-03 23:42:00,
2013-09-03 17:53:00,67.0,56.0,-100.00,NW,321,5.0,10.0,68,-99.99,,,0.06,367.000000,,2013-09-03 23:53:00,
2013-09-03 18:02:00,67.0,56.0,-100.00,NW,321,5.0,10.0,68,-99.99,,,0.06,367.000000,,2013-09-04 00:02:00,
2013-09-03 18:11:00,67.0,56.0,-100.00,NW,321,5.0,10.0,68,-99.99,,,0.06,367.000000,,2013-09-04 00:11:00,
2013-09-03 18:42:00,66.0,58.0,-100.00,West,274,3.0,9.0,76,0.00,,,0.06,146.000000,,2013-09-04 00:42:00,
2013-09-03 18:52:00,66.0,58.0,-100.00,West,274,3.0,9.0,76,0.00,,,0.06,146.000000,,2013-09-04 00:52:00,
2013-09-03 19:01:00,66.0,58.0,-100.00,West,274,3.0,9.0,76,0.00,,,0.06,146.000000,,2013-09-04 01:01:00,
2013-09-03 19:11:00,66.0,58.0,-100.00,West,274,3.0,9.0,76,0.00,,,0.06,146.000000,,2013-09-04 01:11:00,
2013-09-03 19:42:00,65.0,56.0,-100.00,West,267,2.0,5.0,74,0.00,,,0.06,62.000000,,2013-09-04 01:42:00,
2013-09-03 19:53:00,65.0,56.0,-100.00,West,267,2.0,5.0,74,0.00,,,0.06,62.000000,,2013-09-04 01:53:00,
2013-09-03 20:02:00,65.0,56.0,-100.00,West,267,2.0,5.0,74,0.00,,,0.06,62.000000,,2013-09-04 02:02:00,
2013-09-03 20:11:00,65.0,56.0,-100.00,West,267,2.0,5.0,74,0.00,,,0.06,62.000000,,2013-09-04 02:11:00,
2013-09-03 20:43:00,63.0,57.0,-100.00,NNE,17,1.0,4.0,81,0.00,,,0.06,5.000000,,2013-09-04 02:43:00,
2013-09-03 20:52:00,63.0,57.0,-100.00,NNE,17,1.0,4.0,81,0.00,,,0.06,5.000000,,2013-09-04 02:52:00,
2013-09-03 21:03:00,63.0,57.0,-100.00,NNE,17,1.0,4.0,81,0.00,,,0.06,5.000000,,2013-09-04 03:03:00,
2013-09-03 21:11:00,63.0,57.0,-100.00,NNE,17,1.0,4.0,81,0.00,,,0.06,5.000000,,2013-09-04 03:11:00,
2013-09-03 21:44:00,61.0,58.0,-100.00,SE,144,3.0,5.0,89,0.00,,,0.06,0.000000,,2013-09-04 03:44:00,
2013-09-03 21:54:00,61.0,58.0,-100.00,SE,144,3.0,5.0,89,0.00,,,0.06,0.000000,,2013-09-04 03:54:00,
2013-09-03 22:04:00,61.0,58.0,-100.00,SE,144,3.0,5.0,89,0.00,,,0.06,0.000000,,2013-09-04 04:04:00,
2013-09-03 22:14:00,61.0,58.0,-100.00,SE,144,3.0,5.0,89,0.00,,,0.06,0.000000,,2013-09-04 04:14:00,
2013-09-03 22:44:00,60.0,57.0,-100.00,West,275,2.0,4.0,89,0.00,,,0.06,0.000000,,2013-09-04 04:44:00,
2013-09-03 22:54:00,60.0,57.0,-100.00,West,275,2.0,4.0,89,0.00,,,0.06,0.000000,,2013-09-04 04:54:00,
2013-09-03 23:03:00,60.0,57.0,-100.00,West,275,2.0,4.0,89,0.00,,,0.06,0.000000,,2013-09-04 05:03:00,
2013-09-03 23:12:00,60.0,57.0,-100.00,West,275,2.0,4.0,89,0.00,,,0.06,0.000000,,2013-09-04 05:12:00,
2013-09-03 23:43:00,59.0,57.0,-100.00,East,99,4.0,6.0,93,0.00,,,0.06,0.000000,,2013-09-04 05:43:00,
2013-09-03 23:53:00,59.0,57.0,-100.00,East,99,4.0,6.0,93,0.00,,,0.06,0.000000,,2013-09-04 05:53:00,